Location: *
(46.1833°N, 22.7667°E)
Time: 14:01:31
(UTC+00:00)

Spot 2 Rocket - Pass Details

Date: 17 September 2019
Orbit: 757 x 772 km, 98.6° (Epoch: 16 October)

Event Time Altitude Azimuth Distance (km) Brightness Sun altitude
Exits shadow 19:20:07 84° 290° (WNW) 769 3.4 -27.1°
Drops below altitude 10° 19:25:06 10° 345° (NNW) 2,298 6.6 -27.8°
Sets 19:27:24 0° 346° (NNW) 3,227 7.5 -28.1°
